Simultaneous Nadir Overpasses (SNOs) Predictions

Prediction of SNOs between NOAA-19 and METOP-C Satellite Orbit:

Table of predicted SNOs for the next 14.0 days since TLE Epoch: 5/15/2020
Index Date (NOAA-19) Time (NOAA-19) Lat,Lon (NOAA-19) SZA (NOAA-19 ) Date (METOP-C) Time (METOP-C) Lat,Lon (METOP-C) SZA (METOP-C ) Distance(km) Time Diff (sec)
1 05/25/2020 10:39:36 79.98, 42.05 59.70 05/25/2020 10:40:50 79.99, 42.22 59.73 3.36 74
2 05/25/2020 11:30:31 -79.97,-150.46 120.31 05/25/2020 11:31:32 -79.98,-150.48 120.28 1.88 61
3 05/25/2020 12:21:36 79.97, 16.74 59.69 05/25/2020 12:22:12 79.97, 16.76 59.70 0.62 36
4 05/25/2020 13:12:32 -79.98,-176.07 120.32 05/25/2020 13:12:54 -79.97,-175.94 120.31 2.72 22
5 05/25/2020 14:03:36 79.96, -8.57 59.67 05/25/2020 14:03:34 79.96, -8.70 59.67 2.54 2
6 05/25/2020 14:54:32 -79.96, 158.62 120.34 05/25/2020 14:54:16 -79.96, 158.60 120.34 0.32 16
7 05/25/2020 15:45:37 79.96, -34.20 59.66 05/25/2020 15:44:56 79.95, -34.16 59.64 1.86 41
8 05/25/2020 16:36:32 -79.95, 133.31 120.35 05/25/2020 16:35:38 -79.95, 133.14 120.38 3.15 54




NCC Satellite Simultaneous Nadir Overpasses (SNOs) Prediction Service
